| time (UTC) | temp C | wind direction | speed KPH | gust KPH | rain 1hr cm | rain 24hr cm | rain mn cm | humidity % | barometer mb |
| 20260509024019 | 16 | 277 | 0.0 | 0.0 | 0.00 | 0.00 | 0.00 | 75 | 1015.0 |
| 20260509023518 | 16 | 277 | 0.0 | 0.0 | 0.00 | 0.00 | 0.00 | 76 | 1015.0 |
| 20260509023019 | 16 | 277 | 0.0 | 0.0 | 0.00 | 0.00 | 0.00 | 76 | 1015.1 |
| 20260509022512 | 16 | 277 | 0.0 | 0.0 | 0.00 | 0.00 | 0.00 | 75 | 1015.1 |
| 20260509022005 | 16 | 277 | 0.0 | 0.0 | 0.00 | 0.00 | 0.00 | 75 | 1015.2 |
| 20260509021459 | 16 | 277 | 0.0 | 0.0 | 0.00 | 0.00 | 0.00 | 75 | 1015.2 |
| 20260509020954 | 16 | 277 | 0.0 | 0.0 | 0.00 | 0.00 | 0.00 | 74 | 1015.3 |
| 20260509020447 | 16 | 277 | 0.0 | 0.0 | 0.00 | 0.00 | 0.00 | 74 | 1015.3 |
| 20260509015941 | 16 | 277 | 0.0 | 0.0 | 0.00 | 0.00 | 0.00 | 74 | 1015.3 |
| 20260509015700 | 17 | 277 | 0.0 | 0.0 | 0.00 | 0.00 | 0.00 | 73 | 1015.0 |
| 20260509014929 | 17 | 277 | 0.0 | 0.0 | 0.00 | 0.00 | 0.00 | 73 | 1015.2 |
| 20260509014423 | 17 | 277 | 0.0 | 0.0 | 0.00 | 0.00 | 0.00 | 73 | 1015.1 |
| 20260509013917 | 17 | 277 | 0.0 | 0.0 | 0.00 | 0.00 | 0.00 | 72 | 1014.9 |
| 20260509013411 | 17 | 277 | 0.0 | 0.0 | 0.00 | 0.00 | 0.00 | 72 | 1014.8 |
| 20260509012905 | 17 | 277 | 0.0 | 0.0 | 0.00 | 0.00 | 0.00 | 72 | 1015.1 |
| 20260509012405 | 17 | 277 | 0.0 | 0.0 | 0.00 | 0.00 | 0.00 | 71 | 1015.1 |
| 20260509011902 | 17 | 277 | 0.0 | 0.0 | 0.00 | 0.00 | 0.00 | 71 | 1015.0 |
| 20260509011402 | 18 | 277 | 0.0 | 0.0 | 0.00 | 0.00 | 0.00 | 70 | 1014.8 |
| 20260509010904 | 18 | 277 | 0.0 | 0.0 | 0.00 | 0.00 | 0.00 | 69 | 1015.1 |
| 20260509010625 | 18 | 277 | 0.0 | 0.0 | 0.00 | 0.00 | 0.00 | 68 | 1015.2 |
| 20260509010120 | 18 | 277 | 0.0 | 0.0 | 0.00 | 0.00 | 0.00 | 68 | 1015.0 |
| 20260509005400 | 18 | 277 | 0.0 | 0.0 | 0.00 | 0.00 | 0.00 | 68 | 1014.8 |
| 20260509004859 | 18 | 277 | 0.0 | 0.0 | 0.00 | 0.00 | 0.00 | 67 | 1014.9 |
| 20260509004358 | 18 | 277 | 0.0 | 0.0 | 0.00 | 0.00 | 0.00 | 66 | 1014.6 |
| 20260509003858 | 19 | 277 | 0.0 | 0.0 | 0.00 | 0.00 | 0.00 | 65 | 1014.5 |
| 20260509003359 | 19 | 277 | 0.0 | 0.0 | 0.00 | 0.00 | 0.00 | 65 | 1014.6 |
| 20260509002857 | 19 | 277 | 0.0 | 0.0 | 0.00 | 0.00 | 0.00 | 65 | 1014.7 |
| 20260509002357 | 19 | 277 | 0.0 | 1.6 | 0.00 | 0.00 | 0.00 | 64 | 1014.6 |
| 20260509001856 | 20 | 277 | 0.0 | 1.6 | 0.00 | 0.00 | 0.00 | 63 | 1014.8 |
| 20260509001844 | 20 | 47 | 0.0 | 0.0 | 0.00 | 0.00 | 0.00 | 62 | 1014.8 |
| 20260509000856 | 20 | 47 | 0.0 | 0.0 | 0.00 | 0.00 | 0.00 | 60 | 1014.6 |
| 20260509000352 | 20 | 47 | 0.0 | 0.0 | 0.00 | 0.00 | 0.00 | 60 | 1014.4 |
| 20260508235844 | 20 | 47 | 0.0 | 0.0 | 0.00 | 0.00 | 0.00 | 58 | 1014.3 |
| 20260508235555 | 20 | 47 | 0.0 | 1.6 | 0.00 | 0.00 | 0.00 | 58 | 1014.2 |
| 20260508234832 | 20 | 47 | 0.0 | 1.6 | 0.00 | 0.00 | 0.00 | 58 | 1014.2 |
| 20260508234325 | 20 | 47 | 0.0 | 1.6 | 0.00 | 0.00 | 0.00 | 57 | 1014.0 |
| 20260508233822 | 20 | 47 | 0.0 | 1.6 | 0.00 | 0.00 | 0.00 | 56 | 1014.2 |
| 20260508233323 | 21 | 47 | 0.0 | 1.6 | 0.00 | 0.00 | 0.00 | 56 | 1014.3 |
| 20260508232820 | 21 | 213 | 0.0 | 0.0 | 0.00 | 0.00 | 0.00 | 56 | 1014.5 |
| 20260508232322 | 21 | 213 | 0.0 | 0.0 | 0.00 | 0.00 | 0.00 | 55 | 1014.5 |
| 20260508231822 | 21 | 213 | 0.0 | 1.6 | 0.00 | 0.00 | 0.00 | 54 | 1014.5 |
| 20260508231319 | 21 | 213 | 0.0 | 1.6 | 0.00 | 0.00 | 0.00 | 53 | 1014.4 |
| 20260508230820 | 21 | 213 | 0.0 | 3.2 | 0.00 | 0.00 | 0.00 | 53 | 1014.3 |
| 20260508230539 | 21 | 213 | 0.0 | 4.8 | 0.00 | 0.00 | 0.00 | 51 | 1014.2 |
| 20260508225819 | 21 | 213 | 1.6 | 4.8 | 0.00 | 0.00 | 0.00 | 51 | 1014.2 |
| 20260508225539 | 21 | 206 | 1.6 | 4.8 | 0.00 | 0.00 | 0.00 | 51 | 1014.3 |
| 20260508224817 | 21 | 224 | 1.6 | 4.8 | 0.00 | 0.00 | 0.00 | 50 | 1014.3 |
| 20260508224319 | 21 | 159 | 1.6 | 4.8 | 0.00 | 0.00 | 0.00 | 50 | 1014.2 |
| 20260508223817 | 21 | 205 | 3.2 | 4.8 | 0.00 | 0.00 | 0.00 | 49 | 1014.3 |
| 20260508223536 | 21 | 166 | 1.6 | 6.4 | 0.00 | 0.00 | 0.00 | 49 | 1014.4 |
| 20260508223050 | 21 | 209 | 1.6 | 6.4 | 0.00 | 0.00 | 0.00 | 51 | 1014.4 |
| 20260508222315 | 21 | 243 | 1.6 | 4.8 | 0.00 | 0.00 | 0.00 | 51 | 1014.4 |
| 20260508221815 | 22 | 297 | 1.6 | 4.8 | 0.00 | 0.00 | 0.00 | 50 | 1014.4 |
| 20260508221527 | 22 | 294 | 1.6 | 4.8 | 0.00 | 0.00 | 0.00 | 50 | 1014.5 |
| 20260508220801 | 22 | 253 | 1.6 | 6.4 | 0.00 | 0.00 | 0.00 | 50 | 1014.5 |
| 20260508220516 | 22 | 167 | 3.2 | 8.0 | 0.00 | 0.00 | 0.00 | 50 | 1014.4 |
| 20260508215750 | 22 | 225 | 3.2 | 11.3 | 0.00 | 0.00 | 0.00 | 50 | 1014.5 |
| 20260508215244 | 22 | 215 | 3.2 | 11.3 | 0.00 | 0.00 | 0.00 | 50 | 1014.4 |
| 20260508214737 | 22 | 307 | 1.6 | 6.4 | 0.00 | 0.00 | 0.00 | 50 | 1014.3 |
| 20260508214231 | 22 | 269 | 3.2 | 6.4 | 0.00 | 0.00 | 0.00 | 49 | 1014.3 |
| 20260508213725 | 22 | 208 | 3.2 | 9.7 | 0.00 | 0.00 | 0.00 | 47 | 1014.2 |
| 20260508213219 | 23 | 237 | 1.6 | 9.7 | 0.00 | 0.00 | 0.00 | 46 | 1014.3 |
| 20260508212714 | 23 | 202 | 1.6 | 6.4 | 0.00 | 0.00 | 0.00 | 45 | 1014.3 |
| 20260508212209 | 23 | 166 | 1.6 | 6.4 | 0.00 | 0.00 | 0.00 | 44 | 1014.3 |
| 20260508211709 | 23 | 280 | 3.2 | 8.0 | 0.00 | 0.00 | 0.00 | 44 | 1014.2 |
| 20260508211213 | 23 | 227 | 3.2 | 8.0 | 0.00 | 0.00 | 0.00 | 44 | 1014.2 |
| 20260508210707 | 23 | 51 | 3.2 | 11.3 | 0.00 | 0.00 | 0.00 | 43 | 1014.2 |
| 20260508210208 | 23 | 250 | 1.6 | 11.3 | 0.00 | 0.00 | 0.00 | 45 | 1014.2 |
| 20260508205708 | 23 | 245 | 3.2 | 11.3 | 0.00 | 0.00 | 0.00 | 44 | 1014.3 |
| 20260508205425 | 23 | 204 | 4.8 | 12.9 | 0.00 | 0.00 | 0.00 | 42 | 1014.2 |
| 20260508204702 | 23 | 236 | 3.2 | 12.9 | 0.00 | 0.00 | 0.00 | 43 | 1014.3 |
| 20260508204426 | 23 | 126 | 3.2 | 9.7 | 0.00 | 0.00 | 0.00 | 43 | 1014.3 |
| 20260508203700 | 23 | 94 | 3.2 | 9.7 | 0.00 | 0.00 | 0.00 | 42 | 1014.3 |
| 20260508203158 | 23 | 263 | 3.2 | 6.4 | 0.00 | 0.00 | 0.00 | 41 | 1014.4 |
| 20260508202656 | 23 | 98 | 3.2 | 11.3 | 0.00 | 0.00 | 0.00 | 41 | 1014.5 |
| 20260508202157 | 23 | 263 | 3.2 | 11.3 | 0.00 | 0.00 | 0.00 | 42 | 1014.5 |
| 20260508201657 | 23 | 252 | 3.2 | 11.3 | 0.00 | 0.00 | 0.00 | 42 | 1014.6 |
| 20260508201158 | 23 | 128 | 4.8 | 11.3 | 0.00 | 0.00 | 0.00 | 43 | 1014.6 |
| 20260508200654 | 23 | 42 | 3.2 | 8.0 | 0.00 | 0.00 | 0.00 | 42 | 1014.7 |
| 20260508200413 | 23 | 55 | 4.8 | 17.7 | 0.00 | 0.00 | 0.00 | 40 | 1014.6 |
| 20260508195655 | 23 | 92 | 4.8 | 17.7 | 0.00 | 0.00 | 0.00 | 38 | 1014.7 |
| 20260508195153 | 23 | 29 | 3.2 | 11.3 | 0.00 | 0.00 | 0.00 | 41 | 1014.7 |
| 20260508194915 | 23 | 218 | 3.2 | 8.0 | 0.00 | 0.00 | 0.00 | 40 | 1014.8 |
| 20260508194155 | 23 | 63 | 3.2 | 8.0 | 0.00 | 0.00 | 0.00 | 41 | 1014.9 |
| 20260508193653 | 22 | 114 | 6.4 | 19.3 | 0.00 | 0.00 | 0.00 | 41 | 1014.9 |
| 20260508193152 | 23 | 76 | 6.4 | 19.3 | 0.00 | 0.00 | 0.00 | 39 | 1014.9 |
| 20260508192654 | 23 | 49 | 6.4 | 12.9 | 0.00 | 0.00 | 0.00 | 41 | 1014.8 |
| 20260508192149 | 23 | 344 | 3.2 | 12.9 | 0.00 | 0.00 | 0.00 | 39 | 1015.0 |
| 20260508191649 | 23 | 53 | 3.2 | 8.0 | 0.00 | 0.00 | 0.00 | 40 | 1015.1 |
| 20260508191150 | 23 | 70 | 4.8 | 12.9 | 0.00 | 0.00 | 0.00 | 42 | 1015.2 |
| 20260508190911 | 23 | 258 | 3.2 | 12.9 | 0.00 | 0.00 | 0.00 | 41 | 1015.0 |
| 20260508190148 | 23 | 138 | 3.2 | 9.7 | 0.00 | 0.00 | 0.00 | 41 | 1015.1 |
| 20260508185917 | 22 | 175 | 3.2 | 8.0 | 0.00 | 0.00 | 0.00 | 40 | 1015.5 |
| 20260508185150 | 22 | 58 | 4.8 | 11.3 | 0.00 | 0.00 | 0.00 | 40 | 1015.7 |
| 20260508184648 | 22 | 157 | 4.8 | 11.3 | 0.00 | 0.00 | 0.00 | 39 | 1015.9 |
| 20260508184150 | 22 | 96 | 3.2 | 9.7 | 0.00 | 0.00 | 0.00 | 40 | 1015.9 |
| 20260508183645 | 22 | 139 | 3.2 | 6.4 | 0.00 | 0.00 | 0.00 | 40 | 1016.0 |
| 20260508183146 | 22 | 259 | 3.2 | 6.4 | 0.00 | 0.00 | 0.00 | 42 | 1016.0 |
| 20260508182647 | 22 | 351 | 4.8 | 8.0 | 0.00 | 0.00 | 0.00 | 42 | 1015.9 |
| 20260508182146 | 22 | 53 | 4.8 | 8.0 | 0.00 | 0.00 | 0.00 | 41 | 1016.0 |
| 20260508181647 | 22 | 14 | 4.8 | 14.5 | 0.00 | 0.00 | 0.00 | 41 | 1016.1 |
| 20260508181146 | 22 | 78 | 4.8 | 14.5 | 0.00 | 0.00 | 0.00 | 40 | 1016.2 |
| 20260508180647 | 22 | 337 | 4.8 | 12.9 | 0.00 | 0.00 | 0.00 | 40 | 1016.4 |
| 20260508180145 | 22 | 123 | 4.8 | 12.9 | 0.00 | 0.00 | 0.00 | 41 | 1016.3 |
| 20260508175646 | 22 | 213 | 4.8 | 16.1 | 0.00 | 0.00 | 0.00 | 43 | 1016.2 |
| 20260508175141 | 22 | 94 | 6.4 | 16.1 | 0.00 | 0.00 | 0.00 | 40 | 1016.1 |
| 20260508174642 | 22 | 26 | 4.8 | 12.9 | 0.00 | 0.00 | 0.00 | 41 | 1016.1 |
| 20260508174143 | 23 | 317 | 3.2 | 11.3 | 0.00 | 0.00 | 0.00 | 39 | 1016.2 |
| 20260508173901 | 22 | 76 | 3.2 | 9.7 | 0.00 | 0.00 | 0.00 | 42 | 1016.3 |
| 20260508173143 | 22 | 76 | 3.2 | 9.7 | 0.00 | 0.00 | 0.00 | 40 | 1016.5 |
| 20260508172910 | 22 | 163 | 3.2 | 9.7 | 0.00 | 0.00 | 0.00 | 41 | 1016.6 |
| 20260508172400 | 22 | 5 | 4.8 | 11.3 | 0.00 | 0.00 | 0.00 | 41 | 1016.6 |
| 20260508171641 | 22 | 72 | 4.8 | 11.3 | 0.00 | 0.00 | 0.00 | 40 | 1016.7 |
| 20260508171143 | 22 | 91 | 4.8 | 14.5 | 0.00 | 0.00 | 0.00 | 41 | 1016.8 |
| 20260508170641 | 22 | 83 | 4.8 | 14.5 | 0.00 | 0.00 | 0.00 | 42 | 1016.8 |
| 20260508170141 | 22 | 49 | 4.8 | 14.5 | 0.00 | 0.00 | 0.00 | 41 | 1016.8 |
| 20260508165642 | 22 | 64 | 4.8 | 14.5 | 0.00 | 0.00 | 0.00 | 41 | 1017.0 |
| 20260508165142 | 22 | 125 | 4.8 | 14.5 | 0.00 | 0.00 | 0.00 | 46 | 1017.0 |
| 20260508164901 | 21 | 96 | 4.8 | 12.9 | 0.00 | 0.00 | 0.00 | 42 | 1017.2 |
| 20260508164142 | 21 | 5 | 4.8 | 12.9 | 0.00 | 0.00 | 0.00 | 43 | 1017.4 |
| 20260508163643 | 21 | 49 | 8.0 | 19.3 | 0.00 | 0.00 | 0.00 | 43 | 1017.3 |
| 20260508163140 | 21 | 63 | 6.4 | 19.3 | 0.00 | 0.00 | 0.00 | 44 | 1017.6 |
| 20260508162856 | 21 | 40 | 4.8 | 16.1 | 0.00 | 0.00 | 0.00 | 45 | 1017.4 |
| 20260508162631 | 21 | 219 | 4.8 | 14.5 | 0.00 | 0.00 | 0.00 | 45 | 1017.4 |
| 20260508161641 | 21 | 5 | 4.8 | 14.5 | 0.00 | 0.03 | 0.00 | 45 | 1017.6 |
| 20260508161141 | 21 | 221 | 6.4 | 17.7 | 0.00 | 0.03 | 0.00 | 44 | 1017.4 |
| 20260508160641 | 21 | 104 | 6.4 | 17.7 | 0.00 | 0.03 | 0.00 | 44 | 1017.6 |
| 20260508160141 | 21 | 61 | 6.4 | 14.5 | 0.00 | 0.08 | 0.00 | 46 | 1017.6 |
| 20260508155641 | 20 | 0 | 6.4 | 14.5 | 0.00 | 0.13 | 0.00 | 47 | 1017.6 |
| 20260508155141 | 20 | 55 | 6.4 | 11.3 | 0.00 | 0.15 | 0.00 | 46 | 1017.6 |
| 20260508154641 | 20 | 52 | 6.4 | 14.5 | 0.00 | 0.15 | 0.00 | 46 | 1017.8 |
| 20260508154141 | 20 | 342 | 6.4 | 14.5 | 0.00 | 0.15 | 0.00 | 46 | 1017.9 |
| 20260508153642 | 20 | 62 | 4.8 | 11.3 | 0.00 | 0.15 | 0.00 | 47 | 1017.9 |
| 20260508153143 | 20 | 74 | 4.8 | 11.3 | 0.00 | 0.15 | 0.00 | 46 | 1018.1 |
| 20260508152640 | 20 | 61 | 6.4 | 17.7 | 0.00 | 0.15 | 0.00 | 46 | 1018.0 |
| 20260508152628 | 20 | 123 | 6.4 | 17.7 | 0.00 | 0.18 | 0.00 | 46 | 1018.1 |
| 20260508151637 | 20 | 69 | 6.4 | 14.5 | 0.00 | 0.20 | 0.00 | 45 | 1018.1 |
| 20260508151138 | 20 | 66 | 6.4 | 16.1 | 0.00 | 0.20 | 0.00 | 45 | 1018.1 |
| 20260508150635 | 20 | 44 | 8.0 | 17.7 | 0.00 | 0.25 | 0.00 | 44 | 1018.1 |
| 20260508150135 | 20 | 53 | 6.4 | 17.7 | 0.00 | 0.28 | 0.00 | 45 | 1018.1 |
| 20260508145635 | 20 | 65 | 6.4 | 14.5 | 0.00 | 0.66 | 0.00 | 43 | 1018.0 |
| 20260508145135 | 20 | 39 | 4.8 | 14.5 | 0.00 | 0.79 | 0.00 | 46 | 1018.1 |
| 20260508144636 | 20 | 39 | 6.4 | 14.5 | 0.00 | 1.04 | 0.00 | 46 | 1018.1 |
| 20260508144136 | 20 | 64 | 8.0 | 19.3 | 0.00 | 1.22 | 0.00 | 44 | 1018.2 |
| 20260508143633 | 20 | 42 | 9.7 | 19.3 | 0.00 | 1.40 | 0.00 | 45 | 1018.3 |
| 20260508143134 | 20 | 64 | 8.0 | 19.3 | 0.00 | 1.45 | 0.00 | 45 | 1018.3 |
| 20260508142633 | 19 | 13 | 9.7 | 22.5 | 0.00 | 1.47 | 0.00 | 45 | 1018.2 |
| 20260508142134 | 19 | 9 | 9.7 | 22.5 | 0.00 | 1.47 | 0.00 | 45 | 1018.2 |
| 20260508141634 | 20 | 40 | 6.4 | 17.7 | 0.00 | 1.50 | 0.00 | 47 | 1018.2 |
| 20260508141351 | 19 | 56 | 6.4 | 16.1 | 0.00 | 1.50 | 0.00 | 48 | 1018.3 |
| 20260508140634 | 19 | 45 | 8.0 | 20.9 | 0.00 | 1.52 | 0.00 | 50 | 1018.3 |
| 20260508140135 | 19 | 46 | 8.0 | 22.5 | 0.00 | 1.52 | 0.00 | 49 | 1018.2 |
| 20260508135632 | 19 | 54 | 9.7 | 22.5 | 0.00 | 1.57 | 0.00 | 49 | 1018.2 |
| 20260508135133 | 19 | 76 | 9.7 | 19.3 | 0.00 | 1.63 | 0.00 | 48 | 1018.3 |
| 20260508134633 | 19 | 86 | 8.0 | 16.1 | 0.00 | 1.63 | 0.00 | 48 | 1018.2 |
| 20260508134135 | 19 | 35 | 6.4 | 16.1 | 0.00 | 1.65 | 0.00 | 50 | 1018.3 |
| 20260508133633 | 18 | 51 | 6.4 | 16.1 | 0.00 | 1.68 | 0.00 | 54 | 1018.2 |
| 20260508133133 | 18 | 71 | 8.0 | 19.3 | 0.00 | 1.70 | 0.00 | 52 | 1018.1 |
| 20260508132852 | 18 | 49 | 8.0 | 19.3 | 0.00 | 1.75 | 0.00 | 53 | 1018.1 |
| 20260508132133 | 18 | 338 | 8.0 | 19.3 | 0.00 | 1.78 | 0.00 | 57 | 1018.0 |
| 20260508131631 | 17 | 30 | 11.3 | 22.5 | 0.00 | 1.78 | 0.00 | 56 | 1017.9 |
| 20260508131357 | 17 | 59 | 11.3 | 22.5 | 0.00 | 1.78 | 0.00 | 56 | 1017.7 |
| 20260508130627 | 17 | 69 | 9.7 | 19.3 | 0.00 | 1.78 | 0.00 | 60 | 1017.6 |
| 20260508130127 | 17 | 57 | 8.0 | 19.3 | 0.00 | 1.78 | 0.00 | 63 | 1017.7 |
| 20260508125628 | 17 | 94 | 6.4 | 14.5 | 0.00 | 1.78 | 0.00 | 63 | 1017.7 |
| 20260508125128 | 16 | 61 | 6.4 | 14.5 | 0.00 | 1.78 | 0.00 | 65 | 1017.6 |
| 20260508124627 | 16 | 71 | 6.4 | 17.7 | 0.00 | 1.78 | 0.00 | 66 | 1017.4 |
| 20260508124127 | 16 | 65 | 6.4 | 17.7 | 0.00 | 1.78 | 0.00 | 65 | 1017.3 |
| 20260508123627 | 16 | 78 | 8.0 | 22.5 | 0.00 | 1.78 | 0.00 | 66 | 1017.3 |
| 20260508123348 | 16 | 42 | 8.0 | 22.5 | 0.00 | 1.78 | 0.00 | 66 | 1017.2 |
| 20260508122845 | 16 | 14 | 6.4 | 14.5 | 0.00 | 1.78 | 0.00 | 70 | 1017.1 |
| 20260508122128 | 16 | 41 | 6.4 | 14.5 | 0.00 | 1.78 | 0.00 | 71 | 1017.1 |
| 20260508121629 | 16 | 47 | 6.4 | 16.1 | 0.00 | 1.78 | 0.00 | 75 | 1017.0 |
| 20260508121348 | 15 | 36 | 4.8 | 14.5 | 0.00 | 1.78 | 0.00 | 79 | 1016.9 |
| 20260508121227 | 15 | 54 | 4.8 | 16.1 | 0.00 | 1.78 | 0.00 | 77 | 1016.9 |
| 20260508120127 | 15 | 60 | 3.2 | 9.7 | 0.00 | 1.78 | 0.00 | 80 | 1016.9 |
| 20260508115627 | 14 | 69 | 3.2 | 9.7 | 0.00 | 1.78 | 0.00 | 82 | 1016.8 |
| 20260508115129 | 13 | 59 | 3.2 | 9.7 | 0.00 | 1.78 | 0.00 | 83 | 1016.7 |
| 20260508114628 | 13 | 59 | 1.6 | 4.8 | 0.00 | 1.78 | 0.00 | 83 | 1016.7 |
| 20260508114122 | 13 | 63 | 0.0 | 3.2 | 0.00 | 1.78 | 0.00 | 83 | 1016.6 |
| 20260508113616 | 12 | 33 | 0.0 | 1.6 | 0.00 | 1.78 | 0.00 | 83 | 1016.5 |
| 20260508113111 | 12 | 33 | 0.0 | 1.6 | 0.00 | 1.78 | 0.00 | 82 | 1016.3 |
| 20260508112604 | 12 | 17 | 0.0 | 1.6 | 0.00 | 1.78 | 0.00 | 82 | 1016.3 |
| 20260508112059 | 12 | 17 | 0.0 | 0.0 | 0.00 | 1.78 | 0.00 | 82 | 1016.2 |
| 20260508111815 | 12 | 17 | 0.0 | 0.0 | 0.00 | 1.78 | 0.00 | 82 | 1016.3 |
| 20260508111047 | 12 | 200 | 0.0 | 0.0 | 0.00 | 1.78 | 0.00 | 82 | 1016.2 |
| 20260508110806 | 12 | 261 | 0.0 | 0.0 | 0.00 | 1.78 | 0.00 | 81 | 1016.2 |
| 20260508110034 | 12 | 261 | 0.0 | 0.0 | 0.00 | 1.80 | 0.00 | 81 | 1016.1 |
| 20260508105528 | 12 | 261 | 0.0 | 0.0 | 0.00 | 1.80 | 0.00 | 81 | 1015.9 |
| 20260508105023 | 12 | 261 | 0.0 | 0.0 | 0.00 | 1.80 | 0.00 | 81 | 1015.8 |
| 20260508104518 | 12 | 287 | 0.0 | 0.0 | 0.00 | 1.83 | 0.00 | 81 | 1015.8 |
| 20260508104010 | 12 | 271 | 0.0 | 0.0 | 0.00 | 1.85 | 0.00 | 81 | 1015.8 |
| 20260508103504 | 12 | 21 | 0.0 | 0.0 | 0.00 | 1.88 | 0.00 | 81 | 1015.6 |
| 20260508103001 | 12 | 44 | 0.0 | 0.0 | 0.00 | 1.88 | 0.00 | 81 | 1015.5 |
| 20260508102501 | 12 | 44 | 0.0 | 0.0 | 0.00 | 1.88 | 0.00 | 81 | 1015.5 |
| 20260508102002 | 12 | 44 | 0.0 | 0.0 | 0.00 | 1.88 | 0.00 | 81 | 1015.4 |
| 20260508101459 | 12 | 44 | 0.0 | 0.0 | 0.00 | 1.88 | 0.00 | 81 | 1015.4 |
| 20260508101000 | 12 | 44 | 0.0 | 0.0 | 0.00 | 1.88 | 0.00 | 81 | 1015.4 |
| 20260508100501 | 12 | 44 | 0.0 | 0.0 | 0.00 | 1.91 | 0.00 | 81 | 1015.4 |
| 20260508095957 | 12 | 44 | 0.0 | 0.0 | 0.00 | 1.98 | 0.00 | 81 | 1015.2 |
| 20260508095457 | 12 | 44 | 0.0 | 0.0 | 0.00 | 2.08 | 0.00 | 81 | 1015.1 |
| 20260508094956 | 12 | 44 | 0.0 | 0.0 | 0.00 | 2.11 | 0.00 | 81 | 1015.0 |
| 20260508094455 | 12 | 44 | 0.0 | 0.0 | 0.00 | 2.11 | 0.00 | 81 | 1014.9 |
| 20260508093955 | 12 | 44 | 0.0 | 0.0 | 0.00 | 2.11 | 0.00 | 81 | 1014.8 |
| 20260508093453 | 12 | 44 | 0.0 | 0.0 | 0.00 | 2.11 | 0.00 | 81 | 1014.8 |
| 20260508092950 | 12 | 44 | 0.0 | 0.0 | 0.00 | 2.11 | 0.00 | 80 | 1014.7 |
| 20260508092449 | 12 | 44 | 0.0 | 0.0 | 0.00 | 2.13 | 0.00 | 80 | 1014.8 |
| 20260508091945 | 12 | 44 | 0.0 | 1.6 | 0.00 | 2.13 | 0.00 | 80 | 1014.7 |
| 20260508091659 | 12 | 44 | 0.0 | 1.6 | 0.00 | 2.13 | 0.00 | 79 | 1014.6 |
| 20260508090944 | 12 | 44 | 0.0 | 0.0 | 0.00 | 2.13 | 0.00 | 79 | 1014.6 |
| 20260508090701 | 12 | 44 | 0.0 | 0.0 | 0.00 | 2.13 | 0.00 | 79 | 1014.5 |
| 20260508085942 | 13 | 44 | 0.0 | 0.0 | 0.00 | 2.16 | 0.00 | 79 | 1014.5 |
| 20260508085443 | 13 | 44 | 0.0 | 0.0 | 0.00 | 2.21 | 0.00 | 79 | 1014.6 |
| 20260508084937 | 13 | 44 | 0.0 | 0.0 | 0.00 | 2.24 | 0.00 | 78 | 1014.6 |
| 20260508084430 | 13 | 44 | 0.0 | 0.0 | 0.00 | 2.29 | 0.00 | 78 | 1014.5 |
| 20260508083925 | 13 | 44 | 0.0 | 0.0 | 0.00 | 2.31 | 0.00 | 78 | 1014.4 |
| 20260508083425 | 13 | 44 | 0.0 | 0.0 | 0.00 | 2.34 | 0.00 | 78 | 1014.4 |
| 20260508082921 | 13 | 44 | 0.0 | 0.0 | 0.00 | 2.36 | 0.00 | 78 | 1014.3 |
| 20260508082439 | 13 | 44 | 0.0 | 0.0 | 0.00 | 2.39 | 0.00 | 78 | 1014.3 |
| 20260508081919 | 13 | 44 | 0.0 | 0.0 | 0.00 | 2.44 | 0.00 | 78 | 1014.3 |
| 20260508081416 | 13 | 44 | 0.0 | 0.0 | 0.00 | 2.46 | 0.00 | 78 | 1014.4 |
| 20260508080913 | 13 | 44 | 0.0 | 0.0 | 0.00 | 2.49 | 0.00 | 78 | 1014.3 |
| 20260508080411 | 13 | 44 | 0.0 | 0.0 | 0.00 | 2.51 | 0.00 | 77 | 1014.2 |
| 20260508080350 | 13 | 44 | 0.0 | 0.0 | 0.00 | 2.51 | 0.00 | 77 | 1014.3 |
| 20260508075411 | 13 | 44 | 0.0 | 0.0 | 0.00 | 2.54 | 0.00 | 77 | 1014.4 |
| 20260508074910 | 13 | 44 | 0.0 | 1.6 | 0.00 | 2.54 | 0.00 | 77 | 1014.4 |
| 20260508074406 | 13 | 44 | 0.0 | 1.6 | 0.00 | 2.54 | 0.00 | 77 | 1014.3 |
| 20260508073906 | 13 | 44 | 0.0 | 6.4 | 0.00 | 2.57 | 0.00 | 77 | 1014.2 |
| 20260508073404 | 13 | 44 | 1.6 | 8.0 | 0.00 | 2.57 | 0.00 | 77 | 1014.3 |
| 20260508072904 | 13 | 228 | 1.6 | 8.0 | 0.00 | 2.59 | 0.00 | 77 | 1014.4 |
| 20260508072404 | 13 | 258 | 0.0 | 6.4 | 0.00 | 2.62 | 0.00 | 77 | 1014.4 |
| 20260508071903 | 14 | 227 | 0.0 | 0.0 | 0.00 | 2.64 | 0.00 | 77 | 1014.3 |
| 20260508071403 | 14 | 227 | 0.0 | 1.6 | 0.00 | 2.67 | 0.00 | 76 | 1014.4 |
| 20260508071114 | 14 | 227 | 0.0 | 1.6 | 0.00 | 2.69 | 0.00 | 76 | 1014.4 |
| 20260508070352 | 14 | 227 | 0.0 | 3.2 | 0.00 | 2.69 | 0.00 | 76 | 1014.3 |
| 20260508065846 | 14 | 227 | 0.0 | 3.2 | 0.00 | 2.69 | 0.00 | 75 | 1014.3 |
| 20260508065341 | 15 | 227 | 0.0 | 4.8 | 0.00 | 2.69 | 0.00 | 75 | 1014.2 |
| 20260508064835 | 15 | 227 | 1.6 | 4.8 | 0.00 | 2.69 | 0.00 | 75 | 1014.0 |
| 20260508064328 | 15 | 227 | 0.0 | 3.2 | 0.00 | 2.69 | 0.00 | 74 | 1013.9 |
| 20260508063822 | 15 | 227 | 0.0 | 0.0 | 0.00 | 2.69 | 0.00 | 73 | 1013.9 |
| 20260508063316 | 15 | 227 | 0.0 | 0.0 | 0.00 | 2.69 | 0.00 | 73 | 1013.9 |
| 20260508062810 | 15 | 227 | 0.0 | 0.0 | 0.00 | 2.69 | 0.00 | 73 | 1014.0 |
| 20260508062311 | 15 | 227 | 0.0 | 3.2 | 0.00 | 2.69 | 0.00 | 72 | 1014.0 |
| 20260508061807 | 15 | 227 | 1.6 | 4.8 | 0.00 | 2.69 | 0.00 | 72 | 1014.1 |
| 20260508061307 | 15 | 219 | 1.6 | 4.8 | 0.00 | 2.69 | 0.00 | 72 | 1014.0 |
| 20260508061029 | 15 | 255 | 1.6 | 4.8 | 0.00 | 2.69 | 0.00 | 72 | 1014.1 |
| 20260508060306 | 16 | 255 | 1.6 | 4.8 | 0.00 | 2.69 | 0.00 | 72 | 1014.1 |
| 20260508055805 | 16 | 278 | 1.6 | 6.4 | 0.00 | 2.69 | 0.00 | 72 | 1014.1 |
| 20260508055306 | 16 | 273 | 0.0 | 6.4 | 0.00 | 2.69 | 0.00 | 71 | 1014.0 |
| 20260508054805 | 16 | 246 | 0.0 | 4.8 | 0.00 | 2.69 | 0.00 | 71 | 1013.9 |
| 20260508054303 | 16 | 246 | 1.6 | 6.4 | 0.00 | 2.69 | 0.00 | 71 | 1014.2 |
| 20260508053756 | 16 | 255 | 1.6 | 6.4 | 0.00 | 2.69 | 0.00 | 71 | 1014.1 |
| 20260508053251 | 16 | 254 | 1.6 | 4.8 | 0.00 | 2.69 | 0.00 | 71 | 1014.0 |
| 20260508053006 | 16 | 252 | 1.6 | 4.8 | 0.00 | 2.69 | 0.00 | 71 | 1014.0 |
| 20260508052714 | 16 | 244 | 3.2 | 6.4 | 0.00 | 2.69 | 0.00 | 70 | 1013.9 |
| 20260508051732 | 16 | 289 | 1.6 | 6.4 | 0.00 | 2.69 | 0.00 | 70 | 1014.1 |
| 20260508051226 | 16 | 262 | 1.6 | 4.8 | 0.00 | 2.69 | 0.00 | 70 | 1014.1 |
| 20260508050724 | 17 | 262 | 1.6 | 6.4 | 0.00 | 2.69 | 0.00 | 70 | 1014.0 |
| 20260508050221 | 17 | 260 | 1.6 | 6.4 | 0.00 | 2.69 | 0.00 | 69 | 1013.9 |
| 20260508045720 | 17 | 297 | 1.6 | 6.4 | 0.00 | 2.69 | 0.00 | 69 | 1013.9 |
| 20260508045220 | 17 | 236 | 1.6 | 6.4 | 0.00 | 2.69 | 0.00 | 69 | 1014.0 |
| 20260508045158 | 17 | 265 | 1.6 | 6.4 | 0.00 | 2.69 | 0.00 | 68 | 1014.0 |
| 20260508044217 | 17 | 260 | 1.6 | 4.8 | 0.00 | 2.69 | 0.00 | 68 | 1013.9 |
| 20260508043715 | 17 | 248 | 3.2 | 6.4 | 0.00 | 2.69 | 0.00 | 68 | 1013.9 |
| 20260508043215 | 17 | 230 | 3.2 | 6.4 | 0.00 | 2.69 | 0.00 | 68 | 1014.0 |
| 20260508042717 | 17 | 242 | 3.2 | 6.4 | 0.00 | 2.69 | 0.00 | 68 | 1013.9 |
| 20260508042213 | 17 | 243 | 1.6 | 4.8 | 0.00 | 2.69 | 0.00 | 67 | 1013.7 |
| 20260508041718 | 18 | 306 | 1.6 | 6.4 | 0.00 | 2.69 | 0.00 | 67 | 1013.9 |
| 20260508041213 | 18 | 267 | 1.6 | 6.4 | 0.00 | 2.69 | 0.00 | 67 | 1013.8 |
| 20260508040936 | 18 | 269 | 1.6 | 6.4 | 0.00 | 2.69 | 0.00 | 67 | 1013.7 |
| 20260508040212 | 18 | 298 | 3.2 | 9.7 | 0.00 | 2.69 | 0.00 | 67 | 1013.7 |
| 20260508035712 | 18 | 318 | 3.2 | 9.7 | 0.00 | 2.69 | 2.69 | 67 | 1013.6 |
| 20260508035434 | 18 | 276 | 3.2 | 6.4 | 0.00 | 2.69 | 2.69 | 67 | 1013.6 |
| 20260508034712 | 18 | 292 | 3.2 | 11.3 | 0.00 | 2.69 | 2.69 | 67 | 1013.6 |
| 20260508034207 | 18 | 292 | 3.2 | 11.3 | 0.00 | 2.69 | 2.69 | 67 | 1013.6 |
| 20260508033708 | 18 | 262 | 3.2 | 11.3 | 0.00 | 2.69 | 2.69 | 67 | 1013.5 |
| 20260508033209 | 18 | 205 | 3.2 | 6.4 | 0.00 | 2.69 | 2.69 | 67 | 1013.5 |
| 20260508032706 | 18 | 273 | 3.2 | 6.4 | 0.00 | 2.69 | 2.69 | 66 | 1013.6 |
| 20260508032207 | 19 | 302 | 3.2 | 8.0 | 0.00 | 2.69 | 2.69 | 66 | 1013.5 |
| 20260508031708 | 19 | 250 | 4.8 | 12.9 | 0.00 | 2.69 | 2.69 | 66 | 1013.5 |
| 20260508031434 | 19 | 277 | 4.8 | 12.9 | 0.00 | 2.69 | 2.69 | 65 | 1013.6 |
| 20260508030710 | 19 | 272 | 4.8 | 12.9 | 0.00 | 2.69 | 2.69 | 65 | 1013.6 |
| 20260508030209 | 19 | 236 | 4.8 | 12.9 | 0.00 | 2.69 | 2.69 | 64 | 1013.7 |
| 20260508025707 | 20 | 237 | 4.8 | 12.9 | 0.00 | 2.69 | 2.69 | 64 | 1013.5 |
| 20260508025209 | 20 | 269 | 4.8 | 12.9 | 0.00 | 2.69 | 2.69 | 64 | 1013.4 |
| 20260508024714 | 20 | 241 | 6.4 | 19.3 | 0.00 | 2.69 | 2.69 | 63 | 1013.2 |